Location: Trout Lake
(45.9980°N, 121.5270°W)
Time: 12:40:47
(UTC-08:00)

ERS-1 Rocket - Pass Details

Date: 15 September 2025
Orbit: 747 x 751 km, 98.2° (Epoch: 15 January)

Event Time Altitude Azimuth Distance (km) Brightness Sun altitude
Exits shadow 21:57:08 61° 222° (SW) 854 3.1 -26.8°
Maximum altitude 21:57:40 66° 258° (WSW) 823 3.2 -26.9°
Drops below altitude 10° 22:02:40 10° 341° (NNW) 2,282 6.1 -27.5°
Sets 22:05:00 0° 344° (NNW) 3,211 7.0 -27.9°
